Year,Month,Day,Hour,Minute,Value (Times are PST for windgust in km/hr)
2015,12,13,00,00,8.10
2015,12,13,00,01,4.80
2015,12,13,00,02,4.80
2015,12,13,00,03,4.80
2015,12,13,00,04,4.80
2015,12,13,00,06,6.40
2015,12,13,00,07,4.80
2015,12,13,00,08,4.80
2015,12,13,00,09,24.20
2015,12,13,00,10,20.90
2015,12,13,00,11,11.30
2015,12,13,00,12,11.30
2015,12,13,00,13,8.10
2015,12,13,00,14,6.40
2015,12,13,00,15,8.10
2015,12,13,00,16,6.40
2015,12,13,00,17,8.10
2015,12,13,00,18,11.30
2015,12,13,00,19,14.50
2015,12,13,00,20,14.50
2015,12,13,00,21,19.30
2015,12,13,00,22,14.50
2015,12,13,00,23,19.30
2015,12,13,00,24,14.50
2015,12,13,00,25,8.10
2015,12,13,00,26,9.60
2015,12,13,00,27,12.90
2015,12,13,00,28,11.30
2015,12,13,00,29,6.40
2015,12,13,00,30,4.80
2015,12,13,00,31,6.40
2015,12,13,00,32,8.10
2015,12,13,00,33,8.10
2015,12,13,00,34,6.40
2015,12,13,00,35,3.20
2015,12,13,00,36,8.10
2015,12,13,00,37,4.80
2015,12,13,00,38,4.80
2015,12,13,00,39,8.10
2015,12,13,00,40,4.80
2015,12,13,00,41,8.10
2015,12,13,00,42,6.40
2015,12,13,00,43,4.80
2015,12,13,00,44,4.80
2015,12,13,00,45,3.20
2015,12,13,00,46,4.80
2015,12,13,00,47,4.80
2015,12,13,00,48,1.60
2015,12,13,00,49,8.10
2015,12,13,00,50,8.10
2015,12,13,00,51,4.80
2015,12,13,00,52,1.60
2015,12,13,01,14,4.80
2015,12,13,01,15,4.80
2015,12,13,01,16,4.80
2015,12,13,01,17,3.20
2015,12,13,01,18,3.20
2015,12,13,01,19,1.60
2015,12,13,01,26,1.60
2015,12,13,01,30,3.20
2015,12,13,01,31,3.20
2015,12,13,01,32,4.80
2015,12,13,01,34,1.60
2015,12,13,01,35,6.40
2015,12,13,01,36,1.60
2015,12,13,01,38,4.80
2015,12,13,01,39,1.60
2015,12,13,01,40,3.20
2015,12,13,01,44,4.80
2015,12,13,01,45,3.20
2015,12,13,02,01,8.10
2015,12,13,02,02,9.60
2015,12,13,02,03,6.40
2015,12,13,02,05,3.20
2015,12,13,02,06,4.80
2015,12,13,02,07,4.80
2015,12,13,02,08,6.40
2015,12,13,02,09,6.40
2015,12,13,02,10,6.40
2015,12,13,02,11,8.10
2015,12,13,02,12,4.80
2015,12,13,02,13,6.40
2015,12,13,02,14,8.10
2015,12,13,02,15,4.80
2015,12,13,02,16,4.80
2015,12,13,02,17,17.70
2015,12,13,02,18,11.30
2015,12,13,02,19,14.50
2015,12,13,02,20,11.30
2015,12,13,02,21,14.50
2015,12,13,02,22,11.30
2015,12,13,02,23,9.60
2015,12,13,02,24,17.70
2015,12,13,02,25,14.50
2015,12,13,02,26,12.90
2015,12,13,02,27,9.60
2015,12,13,02,28,11.30
2015,12,13,02,29,11.30
2015,12,13,02,30,9.60
2015,12,13,02,31,6.40
2015,12,13,02,32,11.30
2015,12,13,02,33,8.10
2015,12,13,02,34,11.30
2015,12,13,02,35,14.50
2015,12,13,02,36,11.30
2015,12,13,02,37,17.70
2015,12,13,02,38,19.30
2015,12,13,02,39,14.50
2015,12,13,02,40,9.60
2015,12,13,02,41,8.10
2015,12,13,02,42,9.60
2015,12,13,02,43,11.30
2015,12,13,02,44,11.30
2015,12,13,02,45,11.30
2015,12,13,02,46,9.60
2015,12,13,02,47,8.10
2015,12,13,02,48,9.60
2015,12,13,02,49,9.60
2015,12,13,02,50,8.10
2015,12,13,02,51,8.10
2015,12,13,02,52,9.60
2015,12,13,02,53,9.60
2015,12,13,02,54,8.10
2015,12,13,02,55,9.60
2015,12,13,02,56,8.10
2015,12,13,02,57,8.10
2015,12,13,02,58,11.30
2015,12,13,02,59,9.60
2015,12,13,03,00,9.60
2015,12,13,03,01,6.40
2015,12,13,03,02,8.10
2015,12,13,03,03,8.10
2015,12,13,03,04,11.30
2015,12,13,03,05,9.60
2015,12,13,03,06,8.10
2015,12,13,03,07,6.40
2015,12,13,03,08,8.10
2015,12,13,03,09,9.60
2015,12,13,03,10,8.10
2015,12,13,03,11,6.40
2015,12,13,03,12,8.10
2015,12,13,03,13,4.80
2015,12,13,03,14,4.80
2015,12,13,03,15,6.40
2015,12,13,03,16,8.10
2015,12,13,03,17,9.60
2015,12,13,03,18,9.60
2015,12,13,03,19,6.40
2015,12,13,03,20,9.60
2015,12,13,03,21,9.60
2015,12,13,03,22,9.60
2015,12,13,03,23,8.10
2015,12,13,03,24,11.30
2015,12,13,03,25,9.60
2015,12,13,03,26,9.60
2015,12,13,03,27,9.60
2015,12,13,03,28,8.10
2015,12,13,03,29,9.60
2015,12,13,03,30,11.30
2015,12,13,03,31,9.60
2015,12,13,03,32,12.90
2015,12,13,03,33,17.70
2015,12,13,03,34,14.50
2015,12,13,03,35,16.10
2015,12,13,03,36,11.30
2015,12,13,03,37,12.90
2015,12,13,03,38,12.90
2015,12,13,03,39,11.30
2015,12,13,03,40,11.30
2015,12,13,03,41,11.30
2015,12,13,03,42,11.30
2015,12,13,03,43,16.10
2015,12,13,03,44,11.30
2015,12,13,03,45,16.10
2015,12,13,03,46,12.90
2015,12,13,03,47,11.30
2015,12,13,03,48,14.50
2015,12,13,03,49,11.30
2015,12,13,03,50,16.10
2015,12,13,03,51,14.50
2015,12,13,03,52,11.30
2015,12,13,03,53,14.50
2015,12,13,03,54,9.60
2015,12,13,03,55,11.30
2015,12,13,03,56,11.30
2015,12,13,03,57,16.10
2015,12,13,03,58,9.60
2015,12,13,03,59,9.60
2015,12,13,04,00,14.50
2015,12,13,04,01,12.90
2015,12,13,04,02,16.10
2015,12,13,04,03,16.10
2015,12,13,04,04,11.30
2015,12,13,04,05,14.50
2015,12,13,04,06,9.60
2015,12,13,04,07,9.60
2015,12,13,04,08,8.10
2015,12,13,04,09,9.60
2015,12,13,04,10,8.10
2015,12,13,04,11,8.10
2015,12,13,04,12,11.30
2015,12,13,04,13,11.30
2015,12,13,04,14,14.50
2015,12,13,04,15,14.50
2015,12,13,04,16,12.90
2015,12,13,04,17,11.30
2015,12,13,04,18,12.90
2015,12,13,04,19,11.30
2015,12,13,04,20,9.60
2015,12,13,04,21,14.50
2015,12,13,04,22,14.50
2015,12,13,04,23,11.30
2015,12,13,04,24,12.90
2015,12,13,04,25,11.30
2015,12,13,04,26,9.60
2015,12,13,04,27,14.50
2015,12,13,04,28,16.10
2015,12,13,04,29,16.10
2015,12,13,04,30,14.50
2015,12,13,04,31,16.10
2015,12,13,04,32,11.30
2015,12,13,04,33,14.50
2015,12,13,04,34,14.50
2015,12,13,04,35,12.90
2015,12,13,04,36,11.30
2015,12,13,04,37,14.50
2015,12,13,04,38,17.70
2015,12,13,04,39,16.10
2015,12,13,04,40,14.50
2015,12,13,04,41,17.70
2015,12,13,04,42,16.10
2015,12,13,04,43,14.50
2015,12,13,04,44,9.60
2015,12,13,04,45,14.50
2015,12,13,04,46,11.30
2015,12,13,04,47,17.70
2015,12,13,04,48,14.50
2015,12,13,04,49,8.10
2015,12,13,04,50,9.60
2015,12,13,04,51,11.30
2015,12,13,04,52,11.30
2015,12,13,04,53,11.30
2015,12,13,04,54,11.30
2015,12,13,04,55,11.30
2015,12,13,04,56,11.30
2015,12,13,04,57,11.30
2015,12,13,04,58,9.60
2015,12,13,04,59,14.50
2015,12,13,05,00,14.50
2015,12,13,05,01,11.30
2015,12,13,05,02,12.90
2015,12,13,05,03,11.30
2015,12,13,05,04,11.30
2015,12,13,05,05,12.90
2015,12,13,05,06,14.50
2015,12,13,05,07,11.30
2015,12,13,05,08,14.50
2015,12,13,05,09,12.90
2015,12,13,05,10,8.10
2015,12,13,05,11,9.60
2015,12,13,05,12,9.60
2015,12,13,05,13,8.10
2015,12,13,05,14,11.30
2015,12,13,05,15,11.30
2015,12,13,05,16,14.50
2015,12,13,05,17,11.30
2015,12,13,05,18,9.60
2015,12,13,05,19,11.30
2015,12,13,05,20,9.60
2015,12,13,05,21,9.60
2015,12,13,05,22,11.30
2015,12,13,05,23,14.50
2015,12,13,05,24,11.30
2015,12,13,05,25,9.60
2015,12,13,05,26,9.60
2015,12,13,05,27,14.50
2015,12,13,05,28,12.90
2015,12,13,05,29,9.60
2015,12,13,05,30,14.50
2015,12,13,05,31,14.50
2015,12,13,05,32,14.50
2015,12,13,05,33,14.50
2015,12,13,05,34,11.30
2015,12,13,05,35,11.30
2015,12,13,05,36,11.30
2015,12,13,05,37,11.30
2015,12,13,05,38,14.50
2015,12,13,05,39,9.60
2015,12,13,05,40,12.90
2015,12,13,05,41,12.90
2015,12,13,05,42,16.10
2015,12,13,05,43,12.90
2015,12,13,05,44,9.60
2015,12,13,05,45,9.60
2015,12,13,05,46,9.60
2015,12,13,05,47,11.30
2015,12,13,05,48,9.60
2015,12,13,05,49,11.30
2015,12,13,05,50,11.30
2015,12,13,05,51,9.60
2015,12,13,05,52,9.60
2015,12,13,05,53,9.60
2015,12,13,05,54,14.50
2015,12,13,05,55,14.50
2015,12,13,05,56,16.10
2015,12,13,05,57,11.30
2015,12,13,05,58,9.60
2015,12,13,05,59,11.30
2015,12,13,06,00,9.60
2015,12,13,06,01,11.30
2015,12,13,06,02,14.50
2015,12,13,06,03,11.30
2015,12,13,06,04,12.90
2015,12,13,06,05,11.30
2015,12,13,06,06,16.10
2015,12,13,06,07,14.50
2015,12,13,06,08,17.70
2015,12,13,06,09,11.30
2015,12,13,06,10,12.90
2015,12,13,06,11,17.70
2015,12,13,06,12,17.70
2015,12,13,06,13,11.30
2015,12,13,06,14,11.30
2015,12,13,06,15,9.60
2015,12,13,06,16,11.30
2015,12,13,06,17,14.50
2015,12,13,06,18,16.10
2015,12,13,06,19,14.50
2015,12,13,06,20,16.10
2015,12,13,06,21,14.50
2015,12,13,06,22,12.90
2015,12,13,06,23,16.10
2015,12,13,06,24,19.30
2015,12,13,06,25,11.30
2015,12,13,06,26,9.60
2015,12,13,06,27,17.70
2015,12,13,06,28,12.90
2015,12,13,06,29,11.30
2015,12,13,06,30,17.70
2015,12,13,06,31,14.50
2015,12,13,06,32,9.60
2015,12,13,06,33,19.30
2015,12,13,06,34,14.50
2015,12,13,06,35,12.90
2015,12,13,06,36,14.50
2015,12,13,06,37,11.30
2015,12,13,06,38,16.10
2015,12,13,06,39,14.50
2015,12,13,06,40,17.70
2015,12,13,06,41,14.50
2015,12,13,06,42,14.50
2015,12,13,06,43,9.60
2015,12,13,06,44,14.50
2015,12,13,06,45,14.50
2015,12,13,06,46,14.50
2015,12,13,06,47,16.10
2015,12,13,06,48,9.60
2015,12,13,06,49,16.10
2015,12,13,06,50,17.70
2015,12,13,06,51,14.50
2015,12,13,06,52,16.10
2015,12,13,06,53,12.90
2015,12,13,06,54,11.30
2015,12,13,06,55,9.60
2015,12,13,06,56,9.60
2015,12,13,06,57,9.60
2015,12,13,06,58,9.60
2015,12,13,06,59,11.30
2015,12,13,07,00,9.60
2015,12,13,07,01,11.30
2015,12,13,07,02,11.30
2015,12,13,07,03,9.60
2015,12,13,07,04,9.60
2015,12,13,07,05,9.60
2015,12,13,07,06,8.10
2015,12,13,07,07,9.60
2015,12,13,07,08,9.60
2015,12,13,07,09,8.10
2015,12,13,07,10,11.30
2015,12,13,07,11,14.50
2015,12,13,07,12,12.90
2015,12,13,07,13,9.60
2015,12,13,07,14,9.60
2015,12,13,07,15,9.60
2015,12,13,07,16,9.60
2015,12,13,07,17,9.60
2015,12,13,07,18,9.60
2015,12,13,07,19,9.60
2015,12,13,07,20,8.10
2015,12,13,07,21,9.60
2015,12,13,07,22,16.10
2015,12,13,07,23,12.90
2015,12,13,07,24,11.30
2015,12,13,07,25,9.60
2015,12,13,07,26,14.50
2015,12,13,07,27,14.50
2015,12,13,07,28,11.30
2015,12,13,07,29,14.50
2015,12,13,07,30,9.60
2015,12,13,07,31,16.10
2015,12,13,07,32,9.60
2015,12,13,07,33,11.30
2015,12,13,07,34,14.50
2015,12,13,07,35,12.90
2015,12,13,07,36,16.10
2015,12,13,07,37,16.10
2015,12,13,07,38,14.50
2015,12,13,07,39,17.70
2015,12,13,07,40,14.50
2015,12,13,07,41,14.50
2015,12,13,07,42,14.50
2015,12,13,07,43,17.70
2015,12,13,07,44,14.50
2015,12,13,07,45,16.10
2015,12,13,07,46,16.10
2015,12,13,07,47,16.10
2015,12,13,07,48,16.10
2015,12,13,07,49,17.70
2015,12,13,07,50,16.10
2015,12,13,07,51,17.70
2015,12,13,07,52,11.30
2015,12,13,07,53,16.10
2015,12,13,07,54,17.70
2015,12,13,07,55,16.10
2015,12,13,07,56,16.10
2015,12,13,07,57,14.50
2015,12,13,07,58,11.30
2015,12,13,07,59,16.10
2015,12,13,08,00,14.50
2015,12,13,08,01,16.10
2015,12,13,08,02,11.30
2015,12,13,08,03,16.10
2015,12,13,08,04,14.50
2015,12,13,08,05,11.30
2015,12,13,08,06,12.90
2015,12,13,08,07,17.70
2015,12,13,08,08,14.50
2015,12,13,08,09,11.30
2015,12,13,08,10,8.10
2015,12,13,08,11,11.30
2015,12,13,08,12,16.10
2015,12,13,08,13,14.50
2015,12,13,08,14,9.60
2015,12,13,08,15,11.30
2015,12,13,08,16,11.30
2015,12,13,08,17,16.10
2015,12,13,08,18,14.50
2015,12,13,08,19,12.90
2015,12,13,08,20,11.30
2015,12,13,08,21,12.90
2015,12,13,08,22,11.30
2015,12,13,08,23,14.50
2015,12,13,08,24,11.30
2015,12,13,08,25,11.30
2015,12,13,08,26,9.60
2015,12,13,08,27,9.60
2015,12,13,08,28,14.50
2015,12,13,08,29,11.30
2015,12,13,08,30,14.50
2015,12,13,08,31,14.50
2015,12,13,08,32,11.30
2015,12,13,08,33,16.10
2015,12,13,08,34,16.10
2015,12,13,08,35,16.10
2015,12,13,08,36,14.50
2015,12,13,08,37,16.10
2015,12,13,08,38,16.10
2015,12,13,08,39,17.70
2015,12,13,08,40,16.10
2015,12,13,08,41,16.10
2015,12,13,08,42,11.30
2015,12,13,08,43,14.50
2015,12,13,08,44,17.70
2015,12,13,08,45,16.10
2015,12,13,08,46,17.70
2015,12,13,08,47,17.70
2015,12,13,08,48,16.10
2015,12,13,08,49,16.10
2015,12,13,08,50,16.10
2015,12,13,08,51,17.70
2015,12,13,08,52,16.10
2015,12,13,08,53,11.30
2015,12,13,08,54,16.10
2015,12,13,08,55,14.50
2015,12,13,08,56,9.60
2015,12,13,08,57,11.30
2015,12,13,08,58,9.60
2015,12,13,08,59,11.30
2015,12,13,09,00,14.50
2015,12,13,09,01,17.70
2015,12,13,09,02,16.10
2015,12,13,09,03,16.10
2015,12,13,09,04,11.30
2015,12,13,09,05,14.50
2015,12,13,09,06,14.50
2015,12,13,09,07,14.50
2015,12,13,09,08,14.50
2015,12,13,09,09,16.10
2015,12,13,09,10,11.30
2015,12,13,09,11,9.60
2015,12,13,09,12,12.90
2015,12,13,09,13,16.10
2015,12,13,09,14,11.30
2015,12,13,09,15,11.30
2015,12,13,09,16,14.50
2015,12,13,09,17,16.10
2015,12,13,09,18,11.30
2015,12,13,09,19,11.30
2015,12,13,09,20,11.30
2015,12,13,09,21,11.30
2015,12,13,09,22,16.10
2015,12,13,09,23,16.10
2015,12,13,09,24,14.50
2015,12,13,09,25,12.90
2015,12,13,09,26,11.30
2015,12,13,09,27,11.30
2015,12,13,09,28,12.90
2015,12,13,09,29,8.10
2015,12,13,09,30,16.10
2015,12,13,09,31,16.10
2015,12,13,09,32,17.70
2015,12,13,09,33,14.50
2015,12,13,09,34,11.30
2015,12,13,09,35,11.30
2015,12,13,09,36,14.50
2015,12,13,09,37,11.30
2015,12,13,09,38,9.60
2015,12,13,09,39,11.30
2015,12,13,09,40,11.30
2015,12,13,09,41,11.30
2015,12,13,09,42,11.30
2015,12,13,09,43,11.30
2015,12,13,09,44,9.60
2015,12,13,09,45,12.90
2015,12,13,09,46,12.90
2015,12,13,09,47,11.30
2015,12,13,09,48,14.50
2015,12,13,09,49,12.90
2015,12,13,09,50,11.30
2015,12,13,09,51,12.90
2015,12,13,09,52,12.90
2015,12,13,09,53,14.50
2015,12,13,09,54,16.10
2015,12,13,09,55,17.70
2015,12,13,09,56,11.30
2015,12,13,09,57,14.50
2015,12,13,09,58,17.70
2015,12,13,09,59,14.50
2015,12,13,10,00,14.50
2015,12,13,10,01,14.50
2015,12,13,10,02,17.70
2015,12,13,10,03,12.90
2015,12,13,10,04,17.70
2015,12,13,10,05,14.50
2015,12,13,10,06,16.10
2015,12,13,10,07,11.30
2015,12,13,10,08,11.30
2015,12,13,10,09,14.50
2015,12,13,10,10,14.50
2015,12,13,10,11,14.50
2015,12,13,10,12,16.10
2015,12,13,10,13,16.10
2015,12,13,10,14,16.10
2015,12,13,10,15,17.70
2015,12,13,10,16,12.90
2015,12,13,10,17,14.50
2015,12,13,10,18,17.70
2015,12,13,10,19,14.50
2015,12,13,10,20,17.70
2015,12,13,10,21,14.50
2015,12,13,10,22,12.90
2015,12,13,10,23,11.30
2015,12,13,10,24,6.40
2015,12,13,10,25,9.60
2015,12,13,10,26,9.60
2015,12,13,10,27,11.30
2015,12,13,10,28,9.60
2015,12,13,10,29,11.30
2015,12,13,10,30,11.30
2015,12,13,10,31,16.10
2015,12,13,10,32,16.10
2015,12,13,10,33,11.30
2015,12,13,10,34,16.10
2015,12,13,10,35,11.30
2015,12,13,10,36,14.50
2015,12,13,10,37,11.30
2015,12,13,10,38,11.30
2015,12,13,10,39,14.50
2015,12,13,10,40,12.90
2015,12,13,10,41,16.10
2015,12,13,10,42,11.30
2015,12,13,10,43,17.70
2015,12,13,10,44,14.50
2015,12,13,10,45,16.10
2015,12,13,10,46,11.30
2015,12,13,10,47,14.50
2015,12,13,10,48,17.70
2015,12,13,10,49,14.50
2015,12,13,10,50,12.90
2015,12,13,10,51,14.50
2015,12,13,10,52,17.70
2015,12,13,10,53,11.30
2015,12,13,10,54,16.10
2015,12,13,10,55,11.30
2015,12,13,10,56,11.30
2015,12,13,10,57,16.10
2015,12,13,10,58,12.90
2015,12,13,10,59,9.60
2015,12,13,11,00,11.30
2015,12,13,11,01,11.30
2015,12,13,11,02,9.60
2015,12,13,11,03,11.30
2015,12,13,11,04,11.30
2015,12,13,11,05,9.60
2015,12,13,11,06,8.10
2015,12,13,11,07,12.90
2015,12,13,11,08,9.60
2015,12,13,11,09,16.10
2015,12,13,11,10,16.10
2015,12,13,11,11,9.60
2015,12,13,11,12,11.30
2015,12,13,11,13,9.60
2015,12,13,11,14,12.90
2015,12,13,11,15,9.60
2015,12,13,11,16,14.50
2015,12,13,11,17,16.10
2015,12,13,11,18,14.50
2015,12,13,11,19,9.60
2015,12,13,11,20,9.60
2015,12,13,11,21,11.30
2015,12,13,11,22,14.50
2015,12,13,11,23,11.30
2015,12,13,11,24,8.10
2015,12,13,11,25,8.10
2015,12,13,11,26,11.30
2015,12,13,11,27,8.10
2015,12,13,11,28,8.10
2015,12,13,11,29,9.60
2015,12,13,11,30,11.30
2015,12,13,11,31,11.30
2015,12,13,11,32,9.60
2015,12,13,11,33,8.10
2015,12,13,11,34,9.60
2015,12,13,11,35,11.30
2015,12,13,11,36,11.30
2015,12,13,11,37,14.50
2015,12,13,11,38,9.60
2015,12,13,11,39,14.50
2015,12,13,11,40,9.60
2015,12,13,11,41,11.30
2015,12,13,11,42,9.60
2015,12,13,11,43,9.60
2015,12,13,11,44,8.10
2015,12,13,11,45,8.10
2015,12,13,11,46,8.10
2015,12,13,11,47,9.60
2015,12,13,11,48,11.30
2015,12,13,11,49,8.10
2015,12,13,11,50,9.60
2015,12,13,11,51,8.10
2015,12,13,11,52,8.10
2015,12,13,11,53,9.60
2015,12,13,11,54,11.30
2015,12,13,11,55,11.30
2015,12,13,11,56,9.60
2015,12,13,11,57,11.30
2015,12,13,11,58,8.10
2015,12,13,11,59,9.60
2015,12,13,12,00,9.60
2015,12,13,12,01,9.60
2015,12,13,12,02,9.60
2015,12,13,12,03,9.60
2015,12,13,12,04,9.60
2015,12,13,12,05,11.30
2015,12,13,12,06,11.30
2015,12,13,12,07,12.90
2015,12,13,12,08,16.10
2015,12,13,12,09,11.30
2015,12,13,12,10,11.30
2015,12,13,12,11,8.10
2015,12,13,12,12,11.30
2015,12,13,12,13,11.30
2015,12,13,12,14,17.70
2015,12,13,12,15,16.10
2015,12,13,12,16,11.30
2015,12,13,12,17,14.50
2015,12,13,12,18,14.50
2015,12,13,12,19,14.50
2015,12,13,12,20,11.30
2015,12,13,12,21,9.60
2015,12,13,12,22,12.90
2015,12,13,12,23,11.30
2015,12,13,12,24,14.50
2015,12,13,12,25,9.60
2015,12,13,12,26,11.30
2015,12,13,12,27,16.10
2015,12,13,12,28,11.30
2015,12,13,12,29,14.50
2015,12,13,12,30,16.10
2015,12,13,12,31,19.30
2015,12,13,12,32,17.70
2015,12,13,12,33,14.50
2015,12,13,12,34,16.10
2015,12,13,12,35,19.30
2015,12,13,12,36,19.30
2015,12,13,12,37,11.30
2015,12,13,12,38,12.90
2015,12,13,12,39,11.30
2015,12,13,12,40,9.60
2015,12,13,12,41,14.50
2015,12,13,12,42,17.70
2015,12,13,12,43,16.10
2015,12,13,12,44,14.50
2015,12,13,12,45,19.30
2015,12,13,12,46,19.30
2015,12,13,12,47,11.30
2015,12,13,12,48,19.30
2015,12,13,12,49,20.90
2015,12,13,12,50,16.10
2015,12,13,12,51,17.70
2015,12,13,12,52,19.30
2015,12,13,12,53,16.10
2015,12,13,12,54,20.90
2015,12,13,12,55,24.20
2015,12,13,12,56,25.70
2015,12,13,12,57,11.30
2015,12,13,12,58,9.60
2015,12,13,12,59,17.70
2015,12,13,13,00,20.90
2015,12,13,13,01,11.30
2015,12,13,13,02,22.50
2015,12,13,13,03,16.10
2015,12,13,13,04,17.70
2015,12,13,13,05,19.30
2015,12,13,13,06,16.10
2015,12,13,13,07,11.30
2015,12,13,13,08,11.30
2015,12,13,13,09,9.60
2015,12,13,13,10,8.10
2015,12,13,13,11,11.30
2015,12,13,13,12,11.30
2015,12,13,13,13,9.60
2015,12,13,13,14,6.40
2015,12,13,13,15,8.10
2015,12,13,13,16,6.40
2015,12,13,13,17,4.80
2015,12,13,13,18,8.10
2015,12,13,13,19,6.40
2015,12,13,13,20,8.10
2015,12,13,13,21,6.40
2015,12,13,13,22,8.10
2015,12,13,13,23,8.10
2015,12,13,13,24,8.10
2015,12,13,13,25,4.80
2015,12,13,13,26,8.10
2015,12,13,13,27,8.10
2015,12,13,13,28,6.40
2015,12,13,13,29,6.40
2015,12,13,13,30,8.10
2015,12,13,13,31,8.10
2015,12,13,13,32,9.60
2015,12,13,13,33,8.10
2015,12,13,13,34,9.60
2015,12,13,13,35,11.30
2015,12,13,13,36,8.10
2015,12,13,13,37,9.60
2015,12,13,13,38,8.10
2015,12,13,13,39,8.10
2015,12,13,13,40,11.30
2015,12,13,13,41,8.10
2015,12,13,13,42,11.30
2015,12,13,13,43,9.60
2015,12,13,13,44,9.60
2015,12,13,13,45,8.10
2015,12,13,13,46,8.10
2015,12,13,13,47,9.60
2015,12,13,13,48,12.90
2015,12,13,13,49,9.60
2015,12,13,13,50,9.60
2015,12,13,13,51,9.60
2015,12,13,13,52,9.60
2015,12,13,13,53,8.10
2015,12,13,13,54,8.10
2015,12,13,13,55,6.40
2015,12,13,13,56,6.40
2015,12,13,13,57,9.60
2015,12,13,13,58,4.80
2015,12,13,13,59,8.10
2015,12,13,14,00,9.60
2015,12,13,14,01,9.60
2015,12,13,14,02,9.60
2015,12,13,14,03,8.10
2015,12,13,14,04,6.40
2015,12,13,14,05,8.10
2015,12,13,14,06,6.40
2015,12,13,14,07,6.40
2015,12,13,14,08,6.40
2015,12,13,14,09,8.10
2015,12,13,14,10,8.10
2015,12,13,14,11,6.40
2015,12,13,14,12,4.80
2015,12,13,14,13,6.40
2015,12,13,14,14,6.40
2015,12,13,14,15,8.10
2015,12,13,14,16,8.10
2015,12,13,14,17,9.60
2015,12,13,14,18,9.60
2015,12,13,14,19,9.60
2015,12,13,14,20,8.10
2015,12,13,14,21,8.10
2015,12,13,14,22,6.40
2015,12,13,14,23,8.10
2015,12,13,14,24,6.40
2015,12,13,14,25,8.10
2015,12,13,14,26,8.10
2015,12,13,14,27,8.10
2015,12,13,14,28,8.10
2015,12,13,14,29,4.80
2015,12,13,14,30,8.10
2015,12,13,14,31,9.60
2015,12,13,14,32,9.60
2015,12,13,14,33,9.60
2015,12,13,14,34,6.40
2015,12,13,14,35,4.80
2015,12,13,14,36,3.20
2015,12,13,14,37,4.80
2015,12,13,14,38,4.80
2015,12,13,14,39,6.40
2015,12,13,14,40,6.40
2015,12,13,14,41,4.80
2015,12,13,14,42,6.40
2015,12,13,14,43,6.40
2015,12,13,14,44,6.40
2015,12,13,14,45,4.80
2015,12,13,14,46,1.60
2015,12,13,14,47,3.20
2015,12,13,14,48,4.80
2015,12,13,14,49,4.80
2015,12,13,14,50,4.80
2015,12,13,14,51,4.80
2015,12,13,14,52,4.80
2015,12,13,14,53,3.20
2015,12,13,14,54,4.80
2015,12,13,14,55,4.80
2015,12,13,14,56,4.80
2015,12,13,14,57,4.80
2015,12,13,14,58,4.80
2015,12,13,14,59,4.80
2015,12,13,15,00,4.80
2015,12,13,15,01,3.20
2015,12,13,15,02,3.20
2015,12,13,15,03,4.80
2015,12,13,15,04,3.20
2015,12,13,15,05,4.80
2015,12,13,15,06,4.80
2015,12,13,15,07,4.80
2015,12,13,15,08,3.20
2015,12,13,15,09,6.40
2015,12,13,15,10,6.40
2015,12,13,15,11,4.80
2015,12,13,15,12,6.40
2015,12,13,15,13,6.40
2015,12,13,15,14,6.40
2015,12,13,15,15,4.80
2015,12,13,15,16,3.20
2015,12,13,15,17,6.40
2015,12,13,15,18,3.20
2015,12,13,15,19,4.80
2015,12,13,15,20,6.40
2015,12,13,15,21,3.20
2015,12,13,15,22,4.80
2015,12,13,15,23,3.20
2015,12,13,15,24,6.40
2015,12,13,15,25,6.40
2015,12,13,15,26,4.80
2015,12,13,15,27,6.40
2015,12,13,15,28,4.80
2015,12,13,15,29,6.40
2015,12,13,15,30,4.80
2015,12,13,15,31,6.40
2015,12,13,15,32,4.80
2015,12,13,15,33,6.40
2015,12,13,15,34,3.20
2015,12,13,16,07,8.10
2015,12,13,16,08,3.20
2015,12,13,16,18,4.80
2015,12,13,16,19,4.80
2015,12,13,16,20,6.40
2015,12,13,16,21,6.40
2015,12,13,16,22,6.40
2015,12,13,16,23,4.80
2015,12,13,16,24,8.10
2015,12,13,16,25,6.40
2015,12,13,16,26,4.80
2015,12,13,16,27,4.80
2015,12,13,16,28,4.80
2015,12,13,16,29,4.80
2015,12,13,16,30,3.20
2015,12,13,16,31,4.80
2015,12,13,16,32,6.40
2015,12,13,16,33,4.80
2015,12,13,16,34,4.80
2015,12,13,16,35,3.20
2015,12,13,16,36,4.80
2015,12,13,16,37,4.80
2015,12,13,16,38,4.80
2015,12,13,16,39,4.80
2015,12,13,16,40,4.80
2015,12,13,16,41,4.80
2015,12,13,16,42,4.80
2015,12,13,16,43,4.80
2015,12,13,16,44,4.80
2015,12,13,16,45,4.80
2015,12,13,16,46,4.80
2015,12,13,16,47,4.80
2015,12,13,16,48,4.80
2015,12,13,16,49,4.80
2015,12,13,16,50,4.80
2015,12,13,16,51,8.10
2015,12,13,16,52,9.60
2015,12,13,16,53,11.30
2015,12,13,16,54,11.30
2015,12,13,16,55,9.60
2015,12,13,16,56,9.60
2015,12,13,16,57,11.30
2015,12,13,16,58,6.40
2015,12,13,16,59,9.60
2015,12,13,17,00,9.60
2015,12,13,17,01,11.30
2015,12,13,17,02,9.60
2015,12,13,17,03,6.40
2015,12,13,17,04,6.40
2015,12,13,17,05,8.10
2015,12,13,17,06,8.10
2015,12,13,17,07,6.40
2015,12,13,17,08,11.30
2015,12,13,17,09,11.30
2015,12,13,17,10,11.30
2015,12,13,17,11,16.10
2015,12,13,17,12,14.50
2015,12,13,17,13,11.30
2015,12,13,17,14,11.30
2015,12,13,17,15,14.50
2015,12,13,17,16,9.60
2015,12,13,17,17,14.50
2015,12,13,17,18,14.50
2015,12,13,17,19,16.10
2015,12,13,17,20,11.30
2015,12,13,17,21,17.70
2015,12,13,17,22,12.90
2015,12,13,17,23,14.50
2015,12,13,17,24,14.50
2015,12,13,17,25,16.10
2015,12,13,17,26,11.30
2015,12,13,17,27,11.30
2015,12,13,17,28,14.50
2015,12,13,17,29,11.30
2015,12,13,17,30,14.50
2015,12,13,17,31,17.70
2015,12,13,17,32,16.10
2015,12,13,17,33,11.30
2015,12,13,17,34,17.70
2015,12,13,17,35,14.50
2015,12,13,17,36,11.30
2015,12,13,17,37,11.30
2015,12,13,17,38,16.10
2015,12,13,17,39,16.10
2015,12,13,17,40,14.50
2015,12,13,17,41,11.30
2015,12,13,17,42,8.10
2015,12,13,17,43,14.50
2015,12,13,17,44,9.60
2015,12,13,17,45,11.30
2015,12,13,17,46,9.60
2015,12,13,17,47,8.10
2015,12,13,17,48,8.10
2015,12,13,17,49,9.60
2015,12,13,17,50,9.60
2015,12,13,17,51,11.30
2015,12,13,17,52,8.10
2015,12,13,17,53,8.10
2015,12,13,17,54,8.10
2015,12,13,17,55,4.80
2015,12,13,17,56,6.40
2015,12,13,17,57,11.30
2015,12,13,17,58,11.30
2015,12,13,17,59,9.60
2015,12,13,18,00,8.10
2015,12,13,18,01,8.10
2015,12,13,18,02,4.80
2015,12,13,18,03,4.80
2015,12,13,18,04,3.20
2015,12,13,18,05,1.60
2015,12,13,18,06,3.20
2015,12,13,18,07,4.80
2015,12,13,18,08,4.80
2015,12,13,18,09,4.80
2015,12,13,18,10,6.40
2015,12,13,18,11,4.80
2015,12,13,18,12,6.40
2015,12,13,18,13,6.40
2015,12,13,18,14,6.40
2015,12,13,18,15,8.10
2015,12,13,18,16,6.40
2015,12,13,18,17,6.40
2015,12,13,18,18,8.10
2015,12,13,18,19,8.10
2015,12,13,18,20,8.10
2015,12,13,18,21,9.60
2015,12,13,18,22,8.10
2015,12,13,18,23,9.60
2015,12,13,18,24,8.10
2015,12,13,18,25,4.80
2015,12,13,18,26,4.80
2015,12,13,18,27,8.10
2015,12,13,18,28,6.40
2015,12,13,18,29,14.50
2015,12,13,18,30,6.40
2015,12,13,18,31,6.40
2015,12,13,18,32,8.10
2015,12,13,18,33,9.60
2015,12,13,18,34,9.60
2015,12,13,18,35,8.10
2015,12,13,18,36,8.10
2015,12,13,18,37,8.10
2015,12,13,18,38,9.60
2015,12,13,18,39,8.10
2015,12,13,18,40,9.60
2015,12,13,18,41,19.30
2015,12,13,18,42,14.50
2015,12,13,18,43,14.50
2015,12,13,18,44,11.30
2015,12,13,18,45,9.60
2015,12,13,18,46,9.60
2015,12,13,18,47,16.10
2015,12,13,18,48,14.50
2015,12,13,18,49,14.50
2015,12,13,18,50,22.50
2015,12,13,18,51,14.50
2015,12,13,18,52,24.20
2015,12,13,18,53,19.30
2015,12,13,18,54,19.30
2015,12,13,20,07,6.40
2015,12,13,20,08,19.30
2015,12,13,20,09,17.70
2015,12,13,20,10,17.70
2015,12,13,20,11,17.70
2015,12,13,20,12,16.10
2015,12,13,20,13,17.70
2015,12,13,20,14,11.30
2015,12,13,20,15,14.50
2015,12,13,20,16,11.30
2015,12,13,20,17,14.50
2015,12,13,20,18,16.10
2015,12,13,20,19,9.60
2015,12,13,20,20,11.30
2015,12,13,20,21,11.30
2015,12,13,20,22,11.30
2015,12,13,20,23,9.60
2015,12,13,20,24,6.40
2015,12,13,20,25,8.10